Weather History for Great Bend, KS

Change the Weather History Date:

Tuesday, August 20, 2013

  Actual Average Record
Temperature  
Mean Temperature 80 °F -  
Max Temperature 93 °F 91 °F 103 °F (1952)
Min Temperature 66 °F 66 °F 45 °F (1950)
Cooling Degree Days 14    
Growing Degree Days 30 (Base 50)    
Moisture  
Dew Point 63 °F    
Average Humidity 61    
Maximum Humidity 88    
Minimum Humidity 36    
Precipitation  
Precipitation 0.00 in - - ()
Sea Level Pressure  
Sea Level Pressure 29.99 in    
Wind  
Wind Speed 12 mph (South)    
Max Wind Speed 22 mph    
Max Gust Speed 28 mph    
Visibility 10 miles    
Events      
Averages and records for this station are not official NWS values.
T = Trace of Precipitation, MM = Missing Value Source: NWS Daily Summary

Daily Weather History Graph

Daily Weather History Graph

Search for Another Location

Airport:

Trip Planner

Search our weather history database for the weather conditions in past years. The results will help you decide how hot, cold, wet, or windy it might be!

Date:

Astronomy

Aug. 20, 2013 Rise Set
Actual Time 6:54 AM CDT 8:22 PM CDT
Civil Twilight 6:26 AM CDT 8:49 PM CDT
Nautical Twilight 5:53 AM CDT 9:23 PM CDT
Astronomical Twilight 5:18 AM CDT 9:58 PM CDT
Moon 7:55 PM CDT (8/20) 6:25 AM CDT (8/20)
Length of Visible Light 14h 23m
Length of Day
13h 27m
Full, 100% of the Moon is Illuminated
Aug 20
Full
Aug 20
Full
Aug 28
Last Quarter
Sep 5
New
Sep 12
First Quarter

Hourly Weather History & Observations

Time (CDT) Temp. Heat Index Dew Point Humidity Pressure Visibility Wind Dir Wind Speed Gust Speed Precip Events Conditions
12:15 AM 71.6 °F - 64.4 °F 78% 30.00 in 10.0 mi SSE 8.1 mph - N/A   Clear
12:35 AM 71.6 °F - 64.4 °F 78% 30.01 in 10.0 mi South 11.5 mph - N/A   Clear
12:55 AM 71.6 °F - 64.4 °F 78% 30.01 in 10.0 mi South 11.5 mph - N/A   Clear
1:15 AM 71.6 °F - 64.4 °F 78% 30.02 in 10.0 mi South 10.4 mph - N/A   Clear
1:35 AM 71.6 °F - 64.4 °F 78% 30.01 in 10.0 mi South 9.2 mph - N/A   Clear
1:55 AM 69.8 °F - 64.4 °F 83% 30.01 in 10.0 mi South 9.2 mph - N/A   Clear
2:15 AM 69.8 °F - 64.4 °F 83% 30.01 in 10.0 mi South 10.4 mph - N/A   Clear
2:35 AM 69.8 °F - 64.4 °F 83% 30.01 in 10.0 mi South 9.2 mph - N/A   Clear
2:55 AM 69.8 °F - 62.6 °F 78% 30.00 in 10.0 mi South 10.4 mph - N/A   Clear
3:15 AM 69.8 °F - 62.6 °F 78% 30.00 in 10.0 mi South 11.5 mph - N/A   Clear
3:35 AM 69.8 °F - 62.6 °F 78% 30.00 in 10.0 mi South 10.4 mph - N/A   Clear
3:55 AM 68.0 °F - 62.6 °F 83% 30.00 in 10.0 mi South 9.2 mph - N/A   Clear
4:15 AM 68.0 °F - 62.6 °F 83% 30.00 in 10.0 mi South 9.2 mph - N/A   Clear
4:35 AM 68.0 °F - 62.6 °F 83% 30.00 in 10.0 mi South 10.4 mph - N/A   Clear
4:55 AM 68.0 °F - 62.6 °F 83% 30.00 in 10.0 mi South 10.4 mph - N/A   Clear
5:15 AM 68.0 °F - 62.6 °F 83% 30.00 in 10.0 mi South 10.4 mph - N/A   Clear
5:35 AM 66.2 °F - 62.6 °F 88% 30.00 in 10.0 mi South 11.5 mph - N/A   Clear
5:55 AM 66.2 °F - 62.6 °F 88% 30.00 in 10.0 mi South 10.4 mph - N/A   Clear
6:15 AM 66.2 °F - 62.6 °F 88% 30.01 in 10.0 mi South 10.4 mph - N/A   Clear
6:35 AM 66.2 °F - 62.6 °F 88% 30.01 in 10.0 mi South 10.4 mph - N/A   Clear
6:55 AM 66.2 °F - 62.6 °F 88% 30.01 in 9.0 mi South 9.2 mph - N/A   Clear
7:15 AM 66.2 °F - 62.6 °F 88% 30.02 in 9.0 mi South 9.2 mph - N/A   Clear
7:35 AM 66.2 °F - 62.6 °F 88% 30.02 in 10.0 mi South 10.4 mph - N/A   Clear
7:55 AM 68.0 °F - 62.6 °F 83% 30.03 in 10.0 mi South 11.5 mph - N/A   Clear
8:15 AM 69.8 °F - 62.6 °F 78% 30.03 in 10.0 mi South 11.5 mph - N/A   Clear
8:35 AM 71.6 °F - 62.6 °F 73% 30.04 in 10.0 mi South 10.4 mph - N/A   Clear
8:55 AM 73.4 °F - 62.6 °F 69% 30.04 in 10.0 mi South 12.7 mph - N/A   Clear
9:15 AM 75.2 °F - 62.6 °F 65% 30.03 in 10.0 mi South 15.0 mph 20.7 mph N/A   Clear
9:35 AM 77.0 °F - 62.6 °F 61% 30.03 in 10.0 mi South 16.1 mph 21.9 mph N/A   Clear
9:55 AM 78.8 °F - 62.6 °F 57% 30.03 in 10.0 mi South 17.3 mph - N/A   Clear
10:15 AM 80.6 °F 81.8 °F 62.6 °F 54% 30.02 in 10.0 mi South 18.4 mph 23.0 mph N/A   Clear
10:35 AM 82.4 °F 82.9 °F 60.8 °F 48% 30.02 in 10.0 mi South 20.7 mph - N/A   Clear
10:55 AM 82.4 °F 82.9 °F 60.8 °F 48% 30.02 in 10.0 mi South 19.6 mph 25.3 mph N/A   Clear
11:15 AM 84.2 °F 84.4 °F 60.8 °F 45% 30.02 in 10.0 mi South 19.6 mph 24.2 mph N/A   Clear
11:35 AM 86.0 °F 86.1 °F 60.8 °F 43% 30.02 in 10.0 mi South 17.3 mph 23.0 mph N/A   Clear
11:55 AM 87.8 °F 87.6 °F 60.8 °F 40% 30.02 in 10.0 mi South 18.4 mph 25.3 mph N/A   Clear
12:15 PM 87.8 °F 88.5 °F 62.6 °F 43% 30.01 in 10.0 mi South 19.6 mph 24.2 mph N/A   Clear
12:35 PM 89.6 °F 90.1 °F 62.6 °F 40% 30.00 in 10.0 mi SSW 15.0 mph 21.9 mph N/A   Clear
12:55 PM 89.6 °F 90.1 °F 62.6 °F 40% 30.00 in 10.0 mi South 17.3 mph 24.2 mph N/A   Clear
1:15 PM 89.6 °F 90.1 °F 62.6 °F 40% 30.00 in 10.0 mi SSW 16.1 mph 25.3 mph N/A   Clear
1:35 PM 91.4 °F 92.1 °F 62.6 °F 38% 29.99 in 10.0 mi SSW 18.4 mph - N/A   Clear
1:55 PM 91.4 °F 92.1 °F 62.6 °F 38% 29.99 in 10.0 mi South 17.3 mph 21.9 mph N/A   Clear
2:15 PM 91.4 °F 92.1 °F 62.6 °F 38% 29.98 in 10.0 mi South 18.4 mph 23.0 mph N/A   Clear
2:35 PM 93.2 °F 94.1 °F 62.6 °F 36% 29.98 in 10.0 mi SSW 18.4 mph 23.0 mph N/A   Clear
2:55 PM 91.4 °F 93.2 °F 64.4 °F 41% 29.98 in 10.0 mi South 15.0 mph 23.0 mph N/A   Clear
3:15 PM 93.2 °F 94.9 °F 64.4 °F 38% 29.97 in 10.0 mi South 19.6 mph 25.3 mph N/A   Clear
3:35 PM 93.2 °F 94.1 °F 62.6 °F 36% 29.96 in 10.0 mi South 21.9 mph 25.3 mph N/A   Clear
3:55 PM 93.2 °F 94.1 °F 62.6 °F 36% 29.96 in 10.0 mi South 21.9 mph 27.6 mph N/A   Clear
4:15 PM 93.2 °F 94.1 °F 62.6 °F 36% 29.95 in 10.0 mi South 19.6 mph 25.3 mph N/A   Clear
4:35 PM 93.2 °F 94.1 °F 62.6 °F 36% 29.95 in 10.0 mi South 19.6 mph 25.3 mph N/A   Clear
4:55 PM 91.4 °F 93.2 °F 64.4 °F 41% 29.95 in 10.0 mi South 20.7 mph 25.3 mph N/A   Clear
5:15 PM 91.4 °F 93.2 °F 64.4 °F 41% 29.95 in 10.0 mi South 17.3 mph 23.0 mph N/A   Clear
5:35 PM 91.4 °F 93.2 °F 64.4 °F 41% 29.95 in 10.0 mi South 16.1 mph 21.9 mph N/A   Clear
5:55 PM 91.4 °F 93.2 °F 64.4 °F 41% 29.95 in 10.0 mi South 16.1 mph 21.9 mph N/A   Clear
6:15 PM 91.4 °F 93.2 °F 64.4 °F 41% 29.95 in 10.0 mi South 20.7 mph 24.2 mph N/A   Clear
6:35 PM 89.6 °F 91.1 °F 64.4 °F 43% 29.95 in 10.0 mi South 15.0 mph - N/A   Clear
6:55 PM 89.6 °F 91.1 °F 64.4 °F 43% 29.95 in 10.0 mi South 16.1 mph - N/A   Clear
7:15 PM 87.8 °F 89.4 °F 64.4 °F 46% 29.95 in 10.0 mi South 15.0 mph - N/A   Clear
7:35 PM 86.0 °F 87.3 °F 64.4 °F 48% 29.95 in 10.0 mi South 11.5 mph - N/A   Clear
7:55 PM 84.2 °F 85.6 °F 64.4 °F 51% 29.95 in 10.0 mi SSE 10.4 mph - N/A   Clear
8:15 PM 82.4 °F 83.9 °F 64.4 °F 54% 29.96 in 10.0 mi SSE 10.4 mph - N/A   Clear
8:35 PM 80.6 °F 82.3 °F 64.4 °F 58% 29.96 in 10.0 mi SSE 9.2 mph - N/A   Clear
8:55 PM 78.8 °F - 64.4 °F 61% 29.97 in 10.0 mi SSE 9.2 mph - N/A   Clear
9:15 PM 78.8 °F - 64.4 °F 61% 29.98 in 10.0 mi SSE 9.2 mph - N/A   Clear
9:35 PM 78.8 °F - 64.4 °F 61% 29.98 in 10.0 mi SSE 11.5 mph - N/A   Clear
9:55 PM 77.0 °F - 62.6 °F 61% 29.99 in 10.0 mi SSE 11.5 mph - N/A   Clear
10:15 PM 77.0 °F - 62.6 °F 61% 30.00 in 10.0 mi SSE 10.4 mph - N/A   Clear
10:35 PM 75.2 °F - 62.6 °F 65% 30.00 in 10.0 mi SSE 11.5 mph - N/A   Clear
10:55 PM 75.2 °F - 62.6 °F 65% 30.01 in 10.0 mi SSE 10.4 mph - N/A   Clear
11:35 PM 73.4 °F - 62.6 °F 69% 30.01 in 10.0 mi SSE 11.5 mph - N/A   Clear
11:55 PM 73.4 °F - 62.6 °F 69% 30.01 in 10.0 mi SSE 11.5 mph - N/A   Clear